Flag for Germany Weather past 2 weeks in Neumünster, Schleswig-Holstein, Germany

Now
59 °F

Low clouds.


Feels Like: 59 °F
Forecast: 48 / 58 °F
Wind: 2 mph from Northwest

Location: Itzehoe

Current Time: Sep 21, 2014 at 6:29:02 AM

Latest Report: Sep 21, 2014 at 4:00 AM


Visibility: 2 mi

Pressure: 29.90 "Hg

Humidity: 94%

Dew point: 57 °F

Location of NeumünsterLocation

Historic Weather in Neumünster — Graph

°F

Neumünster temperature yesterday

Maximum temperature yesterday: 74 °F (at 3:00 PM)
Minimum temperature yesterday: 49 °F (at 7:00 AM)
Average temperature yesterday: 60 °F

Past Weeks' High & Low Weather Summary

 TemperatureHumidityPressure
High75 °F (Sep 6, 1:00 PM)100% (Sep 8, 4:00 AM)30.28 "Hg (Sep 8, 4:00 AM)
Low48 °F (Sep 9, 12:00 AM)49% (Sep 17, 1:00 PM)29.88 "Hg (Sep 6, 4:00 PM)
Average62 °F83%30.05 "Hg
* Reported Sep 6 4:00 AM — Sep 21 4:00 AM, Neumünster, Weather by CustomWeather, © 2014

Note: Actual official high and low records may vary slightly from our data, if they occured in-between our weather recording intervals... More about our weather records

Advertising

Neumünster weather history for previous 24 hours

 ConditionsComfort  
Time TempWeatherWind HumidityBarometerVisibility
4:00 AM
Sep 21
59 °FLow clouds.2 mph94%29.90 "Hg2 mi
3:00 AM59 °FLow clouds.3 mph94%29.90 "Hg2 mi
2:00 AM60 °FLow clouds.2 mph98%29.90 "Hg1 mi
1:00 AM60 °FLow clouds.2 mph100%29.90 "Hg1 mi
12:00 AM59 °FLow clouds.1 mph99%29.90 "Hg1 mi
10:00 PM
Sep 20
60 °FOvercast.1 mph96%29.91 "Hg1 mi
9:00 PM62 °FClear.No wind92%29.91 "Hg2 mi
8:00 PM64 °FClear.2 mph87%29.90 "Hg4 mi
7:00 PM67 °FPassing clouds.2 mph79%29.90 "Hg7 mi
3:00 PM74 °FOvercast.2 mph57%29.91 "Hg14 mi
1:00 PM72 °FPassing clouds.2 mph59%29.93 "Hg14 mi
12:00 PM69 °FSunny.2 mph67%29.94 "Hg12 mi
10:00 AM64 °FPartly sunny.1 mph84%29.94 "Hg3 mi
9:00 AM56 °FSunny.1 mph91%29.94 "Hg2 mi
8:00 AM51 °FPassing clouds.1 mph97%29.94 "Hg1 mi
7:00 AM49 °FPassing clouds.1 mph99%29.93 "Hg0 mi
6:00 AM52 °FPassing clouds.1 mph99%29.93 "Hg0 mi
Weather by CustomWeather, © 2014

See weather overviewHow to use our weather pages